When you browse on this site, cookies collect data to enhance your experience and personalize the content and advertising you see.
Visit our Privacy Policy to learn more. By continuing to use the site, you agree to this use of cookies and data.
  • In Latvia
  • List of Countries
  • For 7 days
  • Water Temperature
  • Satellite Maps
  • Weather Map
  • Weather Widgets
  • user-avatar
    Login

    Hourly Weather Bansko

    Today, 22 April, Monday

    Time Temperature Precipitation Wind Pressure Humidity
    00:00 +8°C° 0 mm 1 mps 723 mmHg 64%
    01:00 +8°C° 0 mm 1 mps 723 mmHg 68%
    02:00 +7°C° 0 mm 2 mps 723 mmHg 76%
    03:00 +6°C° 0 mm 2 mps 722 mmHg 78%
    04:00 +7°C° 0 mm 1 mps 722 mmHg 79%
    05:00 +7°C° 0 mm 1 mps 722 mmHg 80%
    06:00 +9°C° 0 mm 1 mps 722 mmHg 73%
    07:00 +11°C° 0 mm 1 mps 722 mmHg 66%
    08:00 +13°C° 0 mm 1 mps 722 mmHg 59%
    09:00 +15°C° 0 mm 2 mps 722 mmHg 51%
    10:00 +17°C° 0 mm 2 mps 722 mmHg 44%
    11:00 +18°C° 0 mm 2 mps 722 mmHg 36%
    12:00 +19°C° 0 mm 2 mps 722 mmHg 36%
    13:00 +19°C° 0 mm 3 mps 722 mmHg 36%
    14:00 +20°C° 0 mm 3 mps 722 mmHg 36%
    15:00 +20°C° 0 mm 3 mps 721 mmHg 40%
    16:00 +19°C° 0 mm 3 mps 721 mmHg 43%
    17:00 +19°C° 0 mm 3 mps 721 mmHg 47%
    18:00 +16°C° 0 mm 3 mps 720 mmHg 56%
    19:00 +13°C° 0 mm 3 mps 720 mmHg 65%
    20:00 +11°C° 0 mm 3 mps 720 mmHg 74%
    21:00 +11°C° 0 mm 3 mps 721 mmHg 75%
    22:00 +11°C° 0 mm 3 mps 721 mmHg 76%
    23:00 +10°C° 0 mm 3 mps 722 mmHg 77%

    Tomorrow, 23 April, Tuesday

    Time Temperature Precipitation Wind Pressure Humidity
    00:00 +10°C° 0.4 mm 3 mps 722 mmHg 78%
    01:00 +10°C° 0.4 mm 3 mps 723 mmHg 80%
    02:00 +9°C° 0.4 mm 3 mps 723 mmHg 82%
    03:00 +9°C° 0.8 mm 3 mps 723 mmHg 83%
    04:00 +9°C° 0.8 mm 3 mps 723 mmHg 83%
    05:00 +9°C° 0.8 mm 2 mps 723 mmHg 83%
    06:00 +9°C° 0.4 mm 2 mps 723 mmHg 82%
    07:00 +9°C° 0.4 mm 2 mps 723 mmHg 80%
    08:00 +10°C° 0.4 mm 2 mps 723 mmHg 79%
    09:00 +12°C° 0.2 mm 3 mps 724 mmHg 72%
    10:00 +14°C° 0.2 mm 4 mps 724 mmHg 65%
    11:00 +16°C° 0.2 mm 5 mps 724 mmHg 58%
    12:00 +16°C° 0.1 mm 5 mps 724 mmHg 59%
    13:00 +16°C° 0.1 mm 5 mps 723 mmHg 61%
    14:00 +16°C° 0.1 mm 5 mps 723 mmHg 62%
    15:00 +16°C° 0 mm 5 mps 723 mmHg 63%
    16:00 +15°C° 0 mm 5 mps 723 mmHg 63%
    17:00 +15°C° 0 mm 5 mps 722 mmHg 64%
    18:00 +14°C° 0 mm 4 mps 723 mmHg 68%
    19:00 +13°C° 0 mm 4 mps 723 mmHg 71%
    20:00 +11°C° 0 mm 3 mps 723 mmHg 75%
    21:00 +11°C° 0 mm 3 mps 723 mmHg 75%
    22:00 +10°C° 0 mm 3 mps 723 mmHg 75%
    23:00 +10°C° 0 mm 3 mps 724 mmHg 76%

    Day after tomorrow, 24 April, Wednesday

    Time Temperature Precipitation Wind Pressure Humidity
    00:00 +10°C° 0 mm 2 mps 724 mmHg 78%
    01:00 +9°C° 0 mm 2 mps 724 mmHg 80%
    02:00 +9°C° 0 mm 2 mps 724 mmHg 83%
    03:00 +8°C° 0 mm 2 mps 724 mmHg 84%
    04:00 +8°C° 0 mm 2 mps 724 mmHg 86%
    05:00 +8°C° 0 mm 2 mps 724 mmHg 87%
    06:00 +10°C° 0 mm 2 mps 725 mmHg 81%
    07:00 +13°C° 0 mm 2 mps 725 mmHg 75%
    08:00 +15°C° 0 mm 2 mps 725 mmHg 69%
    09:00 +17°C° 0 mm 2 mps 725 mmHg 62%
    10:00 +19°C° 0 mm 2 mps 725 mmHg 56%
    11:00 +21°C° 0 mm 3 mps 726 mmHg 49%
    12:00 +22°C° 0 mm 3 mps 725 mmHg 47%
    13:00 +22°C° 0 mm 3 mps 725 mmHg 45%
    14:00 +24°C° 0 mm 3 mps 725 mmHg 42%
    15:00 +24°C° 0 mm 3 mps 725 mmHg 45%
    16:00 +22°C° 0 mm 3 mps 724 mmHg 47%
    17:00 +22°C° 0 mm 3 mps 724 mmHg 49%
    18:00 +20°C° 0 mm 2 mps 724 mmHg 58%
    19:00 +17°C° 0 mm 2 mps 724 mmHg 67%
    20:00 +15°C° 0 mm 1 mps 724 mmHg 76%
    21:00 +14°C° 0 mm 1 mps 724 mmHg 79%
    22:00 +14°C° 0 mm 1 mps 725 mmHg 81%
    23:00 +13°C° 0 mm 1 mps 725 mmHg 84%

    25 April, Thursday

    Time Temperature Precipitation Wind Pressure Humidity
    00:00 +13°C° 0 mm 1 mps 725 mmHg 85%
    01:00 +13°C° 0 mm 1 mps 725 mmHg 86%
    02:00 +12°C° 0 mm 1 mps 725 mmHg 87%
    03:00 +12°C° 0 mm 1 mps 725 mmHg 87%
    04:00 +12°C° 0 mm 1 mps 725 mmHg 86%
    05:00 +12°C° 0 mm 1 mps 725 mmHg 85%
    06:00 +14°C° 0 mm 1 mps 726 mmHg 77%
    07:00 +16°C° 0 mm 1 mps 726 mmHg 69%
    08:00 +19°C° 0 mm 1 mps 726 mmHg 61%
    09:00 +20°C° 0 mm 1 mps 726 mmHg 57%
    10:00 +22°C° 0 mm 1 mps 726 mmHg 52%
    11:00 +24°C° 0 mm 2 mps 726 mmHg 48%
    12:00 +24°C° 0 mm 2 mps 726 mmHg 46%
    13:00 +25°C° 0 mm 2 mps 726 mmHg 45%
    14:00 +25°C° 0 mm 2 mps 725 mmHg 44%
    15:00 +25°C° 0 mm 2 mps 725 mmHg 46%
    16:00 +24°C° 0 mm 2 mps 725 mmHg 48%
    17:00 +24°C° 0 mm 2 mps 724 mmHg 50%
    18:00 +21°C° 0 mm 2 mps 724 mmHg 59%
    19:00 +18°C° 0 mm 2 mps 724 mmHg 69%
    20:00 +16°C° 0 mm 2 mps 724 mmHg 78%
    21:00 +16°C° 0 mm 2 mps 724 mmHg 81%
    22:00 +15°C° 0 mm 2 mps 724 mmHg 85%
    23:00 +15°C° 0 mm 1 mps 725 mmHg 88%

    26 April, Friday

    Time Temperature Precipitation Wind Pressure Humidity
    00:00 +15°C° 0 mm 1 mps 724 mmHg 89%
    01:00 +14°C° 0 mm 1 mps 724 mmHg 90%
    02:00 +14°C° 0 mm 1 mps 724 mmHg 92%
    03:00 +13°C° 0 mm 1 mps 724 mmHg 91%
    04:00 +13°C° 0 mm 1 mps 724 mmHg 91%
    05:00 +13°C° 0 mm 1 mps 723 mmHg 90%
    06:00 +15°C° 0 mm 1 mps 724 mmHg 82%
    07:00 +16°C° 0 mm 1 mps 724 mmHg 73%
    08:00 +19°C° 0 mm 1 mps 724 mmHg 64%
    09:00 +21°C° 0 mm 1 mps 724 mmHg 58%
    10:00 +23°C° 0 mm 1 mps 724 mmHg 52%
    11:00 +25°C° 0 mm 1 mps 724 mmHg 46%
    12:00 +25°C° 0 mm 1 mps 724 mmHg 45%
    13:00 +25°C° 0 mm 2 mps 724 mmHg 44%
    14:00 +26°C° 0 mm 2 mps 723 mmHg 42%
    15:00 +26°C° 0 mm 2 mps 723 mmHg 45%
    16:00 +25°C° 0 mm 2 mps 722 mmHg 47%
    17:00 +25°C° 0 mm 2 mps 722 mmHg 49%
    18:00 +23°C° 0 mm 2 mps 722 mmHg 58%
    19:00 +19°C° 0 mm 2 mps 722 mmHg 68%
    20:00 +17°C° 0 mm 2 mps 722 mmHg 78%
    21:00 +17°C° 0 mm 2 mps 722 mmHg 82%
    22:00 +16°C° 0 mm 2 mps 722 mmHg 86%
    23:00 +15°C° 0 mm 2 mps 722 mmHg 90%

    27 April, Saturday

    Time Temperature Precipitation Wind Pressure Humidity
    00:00 +15°C° 0 mm 2 mps 722 mmHg 92%
    01:00 +15°C° 0 mm 2 mps 721 mmHg 93%
    02:00 +14°C° 0 mm 2 mps 721 mmHg 94%
    03:00 +14°C° 0 mm 2 mps 721 mmHg 94%
    04:00 +14°C° 0 mm 2 mps 721 mmHg 94%
    05:00 +14°C° 0 mm 2 mps 721 mmHg 94%
    06:00 +15°C° 0 mm 2 mps 721 mmHg 87%
    07:00 +17°C° 0 mm 2 mps 721 mmHg 80%
    08:00 +18°C° 0 mm 2 mps 721 mmHg 73%
    09:00 +20°C° 0.1 mm 2 mps 721 mmHg 67%
    10:00 +21°C° 0.1 mm 2 mps 721 mmHg 60%
    11:00 +24°C° 0.1 mm 2 mps 721 mmHg 54%
    12:00 +24°C° 0.1 mm 2 mps 720 mmHg 51%
    13:00 +25°C° 0.1 mm 3 mps 720 mmHg 49%
    14:00 +26°C° 0.1 mm 3 mps 719 mmHg 46%
    15:00 +25°C° 0.2 mm 3 mps 719 mmHg 49%
    16:00 +24°C° 0.2 mm 3 mps 718 mmHg 52%
    17:00 +24°C° 0.2 mm 3 mps 718 mmHg 55%
    18:00 +21°C° 0.3 mm 2 mps 718 mmHg 64%
    19:00 +19°C° 0.3 mm 2 mps 718 mmHg 73%
    20:00 +17°C° 0.3 mm 2 mps 718 mmHg 82%
    21:00 +16°C° 0.5 mm 2 mps 718 mmHg 85%
    22:00 +16°C° 0.5 mm 2 mps 718 mmHg 88%
    23:00 +15°C° 0.5 mm 2 mps 718 mmHg 91%
    Show more